Weather History for San Jose Del Cabo, Mexico

Change the Weather History Date:

Thursday, August 15, 2013

  Actual Average Record
Temperature  
Mean Temperature 87 °F -  
Max Temperature 96 °F - - ()
Min Temperature 78 °F - - ()
Cooling Degree Days 22    
Growing Degree Days 37 (Base 50)    
Moisture  
Dew Point 65 °F    
Average Humidity 47    
Maximum Humidity 69    
Minimum Humidity 23    
Precipitation  
Precipitation 0.00 in - - ()
Sea Level Pressure  
Sea Level Pressure 29.83 in    
Wind  
Wind Speed 5 mph ()    
Max Wind Speed 13 mph    
Max Gust Speed -    
Visibility 14.0 miles    
Events      
T = Trace of Precipitation, MM = Missing Value Source: Averaged Metar Reports

Daily Weather History Graph

Daily Weather History Graph

Search for Another Location

Airport:

Trip Planner

Search our weather history database for the weather conditions in past years. The results will help you decide how hot, cold, wet, or windy it might be!

Date:

Astronomy

Aug. 15, 2013 Rise Set
Actual Time 6:55 AM MDT 7:50 PM MDT
Civil Twilight 6:31 AM MDT 8:14 PM MDT
Nautical Twilight 6:04 AM MDT 8:41 PM MDT
Astronomical Twilight 5:35 AM MDT 9:10 PM MDT
Moon 2:59 PM MDT (8/15) 1:17 AM MDT (8/15)
Length of Visible Light 13h 42m
Length of Day
12h 55m
Waxing Gibbous, 65% of the Moon is Illuminated
Aug 15
Waxing Gibbous
Aug 20
Full
Aug 28
Last Quarter
Sep 5
New
Sep 12
First Quarter

Hourly Weather History & Observations

Time (MDT) Temp. Heat Index Dew Point Humidity Pressure Visibility Wind Dir Wind Speed Gust Speed Precip Events Conditions
12:03 AM 82.4 °F 84.6 °F 66.2 °F 58% 29.82 in 12.0 mi WSW 3.5 mph - N/A   Clear
6:25 AM 78.8 °F - 68.0 °F 69% 29.79 in 10.0 mi Calm Calm - N/A   Clear
6:40 AM 78.8 °F - 68.0 °F 69% 29.83 in 15.0 mi WNW 5.8 mph - N/A   Clear
7:52 AM 82.4 °F 85.4 °F 68.0 °F 62% 29.86 in 15.0 mi Calm Calm - N/A   Partly Cloudy
8:50 AM 87.8 °F 90.4 °F 66.2 °F 49% 29.83 in 15.0 mi Calm Calm - N/A   Partly Cloudy
9:40 AM 91.4 °F 94.0 °F 66.2 °F 43% 29.88 in 15.0 mi East 5.8 mph - N/A   Partly Cloudy
10:41 AM 95.0 °F 98.5 °F 66.2 °F 39% 29.87 in 15.0 mi Calm Calm - N/A   Partly Cloudy
11:45 AM 95.0 °F 97.0 °F 64.4 °F 36% 29.83 in 15.0 mi SSE 11.5 mph - N/A   Partly Cloudy
12:43 PM 96.8 °F 98.0 °F 62.6 °F 32% 29.85 in 15.0 mi SSE 11.5 mph - N/A   Scattered Clouds
1:40 PM 96.8 °F 94.4 °F 53.6 °F 23% 29.84 in 15.0 mi ESE 9.2 mph - N/A   Partly Cloudy
2:40 PM 96.8 °F 99.0 °F 64.4 °F 34% 29.77 in 15.0 mi South 6.9 mph - N/A   Clear
3:40 PM 95.0 °F 99.5 °F 68.0 °F 41% 29.82 in 15.0 mi SSE 12.7 mph - N/A   Clear
4:40 PM 91.4 °F 95.4 °F 68.0 °F 46% 29.81 in 15.0 mi SSE 10.4 mph - N/A   Clear
5:45 PM 91.4 °F 95.4 °F 68.0 °F 46% 29.76 in 15.0 mi SSE 11.5 mph - N/A   Clear
6:42 PM 89.6 °F 91.1 °F 64.4 °F 43% 29.80 in 15.0 mi SE 11.5 mph - N/A   Clear
7:40 PM 89.6 °F 89.5 °F 60.8 °F 38% 29.82 in 15.0 mi SE 9.2 mph - N/A   Partly Cloudy
8:43 PM 87.8 °F 89.4 °F 64.4 °F 46% 29.81 in 12.0 mi SE 12.7 mph - N/A   Clear
9:47 PM 86.0 °F 88.2 °F 66.2 °F 51% 29.87 in 12.0 mi SE 6.9 mph - N/A   Scattered Clouds
10:49 PM 86.0 °F 88.2 °F 66.2 °F 51% 29.91 in 12.0 mi NNW 3.5 mph - N/A   Mostly Cloudy
11:41 PM 84.2 °F 86.6 °F 66.2 °F 55% 29.86 in 12.0 mi West 2.3 mph - N/A   Mostly Cloudy